When you browse on this site, cookies collect data to enhance your experience and personalize the content and advertising you see.
Visit our Privacy Policy to learn more. By continuing to use the site, you agree to this use of cookies and data.
  • In Hungary
  • List of Countries
  • For 7 days
  • Water Temperature
  • Satellite Maps
  • Weather Map
  • News
  • Weather Widgets
  • user-avatar
    Login

    Hourly Weather Lemon Grove

    Today, 16 February, Saturday

    Time Temperature Precipitation Wind Pressure Humidity
    00:00 +11°C° 0.2 mm 7 mps 751 mmHg 77%
    01:00 +11°C° 0.2 mm 7 mps 751 mmHg 75%
    02:00 +11°C° 0.2 mm 7 mps 751 mmHg 74%
    03:00 +10°C° 0.2 mm 7 mps 751 mmHg 74%
    04:00 +10°C° 0.2 mm 7 mps 751 mmHg 74%
    05:00 +10°C° 0 mm 7 mps 751 mmHg 72%
    06:00 +10°C° 0 mm 6 mps 752 mmHg 70%
    07:00 +9°C° 0 mm 6 mps 752 mmHg 67%
    08:00 +10°C° 0 mm 6 mps 752 mmHg 60%
    09:00 +11°C° 0 mm 6 mps 753 mmHg 54%
    10:00 +13°C° 0 mm 6 mps 753 mmHg 47%
    11:00 +14°C° 0 mm 7 mps 753 mmHg 46%
    12:00 +14°C° 0 mm 7 mps 752 mmHg 45%
    13:00 +14°C° 0 mm 7 mps 752 mmHg 45%
    14:00 +14°C° 0 mm 7 mps 751 mmHg 48%
    15:00 +12°C° 0 mm 7 mps 751 mmHg 52%
    16:00 +12°C° 0 mm 7 mps 751 mmHg 56%
    17:00 +13°C° 0 mm 6 mps 751 mmHg 60%
    18:00 +11°C° 0 mm 6 mps 752 mmHg 64%
    19:00 +12°C° 0 mm 5 mps 752 mmHg 67%
    20:00 +11°C° 0.2 mm 6 mps 752 mmHg 69%
    21:00 +10°C° 0.2 mm 7 mps 752 mmHg 70%
    22:00 +10°C° 0.2 mm 7 mps 752 mmHg 71%
    23:00 +10°C° 0.1 mm 7 mps 752 mmHg 70%

    Tomorrow, 17 February, Sunday

    Time Temperature Precipitation Wind Pressure Humidity
    00:00 +10°C° 0.1 mm 7 mps 752 mmHg 70%
    01:00 +10°C° 0.1 mm 8 mps 751 mmHg 69%
    02:00 +10°C° 0.2 mm 8 mps 751 mmHg 69%
    03:00 +10°C° 0.2 mm 9 mps 751 mmHg 69%
    04:00 +8°C° 0.2 mm 9 mps 750 mmHg 68%
    05:00 +8°C° 0.2 mm 9 mps 751 mmHg 67%
    06:00 +9°C° 0.2 mm 8 mps 751 mmHg 66%
    07:00 +9°C° 0.2 mm 7 mps 751 mmHg 65%
    08:00 +10°C° 0.1 mm 7 mps 751 mmHg 61%
    09:00 +10°C° 0.1 mm 7 mps 751 mmHg 56%
    10:00 +11°C° 0.1 mm 7 mps 752 mmHg 51%
    11:00 +11°C° 0.1 mm 8 mps 751 mmHg 54%
    12:00 +11°C° 0.1 mm 8 mps 751 mmHg 57%
    13:00 +11°C° 0.1 mm 9 mps 750 mmHg 60%
    14:00 +11°C° 0.8 mm 9 mps 749 mmHg 66%
    15:00 +9°C° 0.8 mm 10 mps 749 mmHg 71%
    16:00 +9°C° 0.8 mm 11 mps 748 mmHg 77%
    17:00 +9°C° 0.4 mm 10 mps 748 mmHg 73%
    18:00 +9°C° 0.4 mm 10 mps 748 mmHg 69%
    19:00 +8°C° 0.4 mm 9 mps 748 mmHg 65%
    20:00 +8°C° 0.5 mm 9 mps 749 mmHg 65%
    21:00 +8°C° 0.5 mm 9 mps 749 mmHg 66%
    22:00 +8°C° 0.5 mm 9 mps 749 mmHg 66%
    23:00 +7°C° 0.6 mm 9 mps 749 mmHg 66%

    Day after tomorrow, 18 February, Monday

    Time Temperature Precipitation Wind Pressure Humidity
    00:00 +7°C° 0.6 mm 9 mps 749 mmHg 67%
    01:00 +7°C° 0.6 mm 9 mps 749 mmHg 67%
    02:00 +7°C° 0.5 mm 8 mps 749 mmHg 67%
    03:00 +6°C° 0.5 mm 7 mps 748 mmHg 67%
    04:00 +7°C° 0.5 mm 6 mps 748 mmHg 67%
    05:00 +7°C° 0.1 mm 5 mps 749 mmHg 66%
    06:00 +7°C° 0.1 mm 4 mps 749 mmHg 65%
    07:00 +7°C° 0.1 mm 2 mps 749 mmHg 64%
    08:00 +9°C° 0 mm 3 mps 750 mmHg 55%
    09:00 +10°C° 0 mm 3 mps 750 mmHg 47%
    10:00 +11°C° 0 mm 3 mps 751 mmHg 39%
    11:00 +11°C° 0 mm 3 mps 750 mmHg 37%
    12:00 +12°C° 0 mm 4 mps 750 mmHg 35%
    13:00 +12°C° 0 mm 4 mps 750 mmHg 33%
    14:00 +12°C° 0 mm 5 mps 750 mmHg 34%
    15:00 +12°C° 0 mm 5 mps 749 mmHg 35%
    16:00 +12°C° 0 mm 5 mps 749 mmHg 37%
    17:00 +11°C° 0 mm 4 mps 750 mmHg 40%
    18:00 +10°C° 0 mm 4 mps 750 mmHg 44%
    19:00 +9°C° 0 mm 3 mps 750 mmHg 48%
    20:00 +9°C° 0 mm 2 mps 751 mmHg 50%
    21:00 +9°C° 0 mm 2 mps 751 mmHg 51%
    22:00 +9°C° 0 mm 1 mps 751 mmHg 53%
    23:00 +9°C° 0 mm 1 mps 751 mmHg 54%

    19 February, Tuesday

    Time Temperature Precipitation Wind Pressure Humidity
    00:00 +8°C° 0 mm 2 mps 751 mmHg 55%
    01:00 +8°C° 0 mm 2 mps 751 mmHg 55%
    02:00 +7°C° 0 mm 2 mps 751 mmHg 56%
    03:00 +7°C° 0 mm 3 mps 751 mmHg 57%
    04:00 +7°C° 0 mm 3 mps 751 mmHg 58%
    05:00 +7°C° 0 mm 3 mps 751 mmHg 58%
    06:00 +7°C° 0 mm 3 mps 751 mmHg 58%
    07:00 +7°C° 0 mm 3 mps 751 mmHg 58%
    08:00 +9°C° 0 mm 3 mps 752 mmHg 54%
    09:00 +10°C° 0 mm 3 mps 752 mmHg 50%
    10:00 +13°C° 0 mm 2 mps 752 mmHg 46%
    11:00 +12°C° 0 mm 3 mps 752 mmHg 44%
    12:00 +13°C° 0 mm 3 mps 751 mmHg 42%
    13:00 +13°C° 0 mm 3 mps 751 mmHg 39%
    14:00 +13°C° 0 mm 3 mps 751 mmHg 41%
    15:00 +14°C° 0 mm 2 mps 751 mmHg 42%
    16:00 +14°C° 0 mm 2 mps 751 mmHg 44%
    17:00 +13°C° 0 mm 2 mps 751 mmHg 49%
    18:00 +12°C° 0 mm 1 mps 751 mmHg 54%
    19:00 +11°C° 0 mm 1 mps 751 mmHg 60%
    20:00 +11°C° 0 mm 1 mps 751 mmHg 61%
    21:00 +11°C° 0 mm 1 mps 752 mmHg 61%
    22:00 +10°C° 0 mm 1 mps 752 mmHg 62%
    23:00 +10°C° 0 mm 1 mps 752 mmHg 58%

    20 February, Wednesday

    Time Temperature Precipitation Wind Pressure Humidity
    00:00 +10°C° 0 mm 1 mps 751 mmHg 54%
    01:00 +9°C° 0 mm 2 mps 751 mmHg 50%
    02:00 +8°C° 0 mm 2 mps 751 mmHg 46%
    03:00 +8°C° 0 mm 2 mps 751 mmHg 41%
    04:00 +8°C° 0 mm 2 mps 750 mmHg 37%
    05:00 +8°C° 0 mm 2 mps 751 mmHg 36%
    06:00 +8°C° 0 mm 2 mps 751 mmHg 35%
    07:00 +8°C° 0 mm 2 mps 751 mmHg 33%
    08:00 +10°C° 0 mm 1 mps 751 mmHg 31%
    09:00 +12°C° 0 mm 1 mps 751 mmHg 28%
    10:00 +13°C° 0 mm 1 mps 751 mmHg 25%
    11:00 +14°C° 0 mm 1 mps 750 mmHg 26%
    12:00 +14°C° 0 mm 2 mps 749 mmHg 27%
    13:00 +14°C° 0 mm 3 mps 749 mmHg 28%
    14:00 +13°C° 0 mm 3 mps 748 mmHg 30%
    15:00 +13°C° 0 mm 3 mps 748 mmHg 33%
    16:00 +13°C° 0 mm 3 mps 747 mmHg 36%
    17:00 +12°C° 0 mm 3 mps 747 mmHg 41%
    18:00 +12°C° 0 mm 2 mps 747 mmHg 47%
    19:00 +11°C° 0 mm 1 mps 747 mmHg 52%
    20:00 +10°C° 0 mm 1 mps 747 mmHg 54%
    21:00 +10°C° 0 mm 1 mps 747 mmHg 55%
    22:00 +10°C° 0 mm 1 mps 747 mmHg 57%
    23:00 +9°C° 0 mm 1 mps 746 mmHg 57%

    21 February, Thursday

    Time Temperature Precipitation Wind Pressure Humidity
    00:00 +9°C° 0 mm 1 mps 746 mmHg 56%
    01:00 +8°C° 0 mm 2 mps 745 mmHg 55%
    02:00 +9°C° 0.1 mm 3 mps 745 mmHg 58%
    03:00 +8°C° 0.1 mm 4 mps 744 mmHg 61%
    04:00 +8°C° 0.1 mm 4 mps 744 mmHg 64%
    05:00 +8°C° 0.6 mm 5 mps 743 mmHg 67%
    06:00 +9°C° 0.6 mm 5 mps 743 mmHg 71%
    07:00 +9°C° 0.6 mm 6 mps 743 mmHg 74%
    08:00 +9°C° 1 mm 7 mps 743 mmHg 73%
    09:00 +10°C° 1 mm 8 mps 742 mmHg 71%
    10:00 +10°C° 1 mm 9 mps 742 mmHg 70%
    11:00 +8°C° 1.8 mm 9 mps 741 mmHg 73%
    12:00 +8°C° 1.8 mm 9 mps 741 mmHg 77%
    13:00 +7°C° 1.8 mm 10 mps 741 mmHg 80%
    14:00 +7°C° 0.6 mm 9 mps 741 mmHg 75%
    15:00 +8°C° 0.6 mm 9 mps 741 mmHg 69%
    16:00 +8°C° 0.6 mm 9 mps 741 mmHg 64%
    17:00 +7°C° 0.7 mm 8 mps 741 mmHg 66%
    18:00 +7°C° 0.7 mm 8 mps 742 mmHg 68%
    19:00 +6°C° 0.7 mm 7 mps 742 mmHg 71%
    20:00 +7°C° 1 mm 6 mps 742 mmHg 72%
    21:00 +7°C° 1 mm 6 mps 743 mmHg 73%
    22:00 +7°C° 1 mm 5 mps 743 mmHg 74%
    23:00 +7°C° 1.3 mm 5 mps 743 mmHg 74%
    Show more